When you browse on this site, cookies collect data to enhance your experience and personalize the content and advertising you see.
Visit our Privacy Policy to learn more. By continuing to use the site, you agree to this use of cookies and data.
  • In Hungary
  • List of Countries
  • For 7 days
  • Water Temperature
  • Weather Map
  • News
  • Weather Widgets
  • user-avatar
    Login

    Hourly Weather Klarynowo

    Today, 15 November, Friday

    Time Temperature Precipitation Wind Pressure Humidity
    00:00 0°C° 0 mm 4 mps 751 mmHg 88%
    01:00 0°C° 0 mm 5 mps 751 mmHg 87%
    02:00 0°C° 0 mm 5 mps 751 mmHg 87%
    03:00 0°C° 0 mm 5 mps 751 mmHg 88%
    04:00 0°C° 0 mm 5 mps 750 mmHg 88%
    05:00 -1°C° 0 mm 6 mps 750 mmHg 90%
    06:00 -1°C° 0 mm 6 mps 750 mmHg 91%
    07:00 +1°C° 0 mm 6 mps 749 mmHg 93%
    08:00 +2°C° 0 mm 6 mps 749 mmHg 94%
    09:00 +3°C° 0 mm 6 mps 749 mmHg 95%
    10:00 +4°C° 0 mm 6 mps 749 mmHg 96%
    11:00 +5°C° 0 mm 6 mps 749 mmHg 95%
    12:00 +7°C° 0 mm 6 mps 749 mmHg 94%
    13:00 +7°C° 0 mm 6 mps 748 mmHg 93%
    14:00 +7°C° 0 mm 6 mps 748 mmHg 93%
    15:00 +8°C° 0 mm 6 mps 748 mmHg 93%
    16:00 +8°C° 0 mm 6 mps 748 mmHg 93%
    17:00 +7°C° 0 mm 6 mps 747 mmHg 92%
    18:00 +7°C° 0 mm 6 mps 747 mmHg 92%
    19:00 +7°C° 0 mm 6 mps 747 mmHg 92%
    20:00 +7°C° 0 mm 6 mps 747 mmHg 93%
    21:00 +7°C° 0 mm 5 mps 747 mmHg 94%
    22:00 +7°C° 0 mm 5 mps 747 mmHg 95%
    23:00 +7°C° 0 mm 5 mps 747 mmHg 94%

    Tomorrow, 16 November, Saturday

    Time Temperature Precipitation Wind Pressure Humidity
    00:00 +7°C° 0 mm 5 mps 747 mmHg 94%
    01:00 +7°C° 0 mm 4 mps 747 mmHg 94%
    02:00 +7°C° 0 mm 4 mps 746 mmHg 93%
    03:00 +7°C° 0 mm 5 mps 746 mmHg 91%
    04:00 +7°C° 0 mm 5 mps 746 mmHg 90%
    05:00 +7°C° 0 mm 5 mps 745 mmHg 88%
    06:00 +7°C° 0 mm 5 mps 745 mmHg 86%
    07:00 +8°C° 0 mm 5 mps 745 mmHg 84%
    08:00 +9°C° 0 mm 6 mps 745 mmHg 81%
    09:00 +10°C° 0 mm 6 mps 745 mmHg 78%
    10:00 +10°C° 0 mm 7 mps 745 mmHg 75%
    11:00 +11°C° 0 mm 7 mps 745 mmHg 73%
    12:00 +12°C° 0 mm 7 mps 745 mmHg 71%
    13:00 +14°C° 0 mm 7 mps 746 mmHg 68%
    14:00 +11°C° 0 mm 6 mps 746 mmHg 71%
    15:00 +10°C° 0 mm 6 mps 747 mmHg 74%
    16:00 +8°C° 0 mm 5 mps 747 mmHg 77%
    17:00 +7°C° 0 mm 5 mps 748 mmHg 79%
    18:00 +6°C° 0 mm 4 mps 749 mmHg 81%
    19:00 +5°C° 0 mm 3 mps 750 mmHg 83%
    20:00 +5°C° 0 mm 3 mps 750 mmHg 84%
    21:00 +4°C° 0 mm 3 mps 750 mmHg 86%
    22:00 +5°C° 0 mm 2 mps 750 mmHg 87%
    23:00 +5°C° 0 mm 2 mps 751 mmHg 88%

    Day after tomorrow, 17 November, Sunday

    Time Temperature Precipitation Wind Pressure Humidity
    00:00 +4°C° 0 mm 2 mps 751 mmHg 89%
    01:00 +4°C° 0 mm 2 mps 752 mmHg 90%
    02:00 +5°C° 0 mm 1 mps 752 mmHg 90%
    03:00 +5°C° 0 mm 1 mps 752 mmHg 90%
    04:00 +5°C° 0 mm 1 mps 752 mmHg 90%
    05:00 +5°C° 0 mm 1 mps 752 mmHg 89%
    06:00 +4°C° 0 mm 2 mps 752 mmHg 87%
    07:00 +5°C° 0 mm 2 mps 752 mmHg 86%
    08:00 +4°C° 0 mm 3 mps 752 mmHg 85%
    09:00 +5°C° 0 mm 3 mps 751 mmHg 84%
    10:00 +6°C° 0 mm 4 mps 751 mmHg 83%
    11:00 +7°C° 0 mm 4 mps 751 mmHg 82%
    12:00 +8°C° 0 mm 5 mps 751 mmHg 82%
    13:00 +9°C° 0 mm 5 mps 750 mmHg 82%
    14:00 +9°C° 0 mm 5 mps 750 mmHg 84%
    15:00 +9°C° 0 mm 5 mps 750 mmHg 85%
    16:00 +8°C° 0 mm 4 mps 749 mmHg 87%
    17:00 +8°C° 0 mm 5 mps 749 mmHg 86%
    18:00 +8°C° 0 mm 5 mps 749 mmHg 84%
    19:00 +8°C° 0 mm 5 mps 749 mmHg 83%
    20:00 +8°C° 0 mm 5 mps 749 mmHg 84%
    21:00 +8°C° 0 mm 5 mps 748 mmHg 86%
    22:00 +7°C° 0 mm 5 mps 748 mmHg 87%
    23:00 +7°C° 0 mm 5 mps 748 mmHg 89%

    18 November, Monday

    Time Temperature Precipitation Wind Pressure Humidity
    00:00 +7°C° 0 mm 5 mps 747 mmHg 90%
    01:00 +7°C° 0 mm 5 mps 747 mmHg 92%
    02:00 +7°C° 0 mm 5 mps 747 mmHg 93%
    03:00 +7°C° 0 mm 5 mps 746 mmHg 94%
    04:00 +7°C° 0 mm 5 mps 746 mmHg 94%
    05:00 +6°C° 0 mm 5 mps 746 mmHg 95%
    06:00 +6°C° 0 mm 4 mps 746 mmHg 95%
    07:00 +6°C° 0 mm 4 mps 745 mmHg 95%
    08:00 +7°C° 0 mm 4 mps 745 mmHg 92%
    09:00 +7°C° 0 mm 4 mps 745 mmHg 90%
    10:00 +8°C° 0 mm 4 mps 745 mmHg 88%
    11:00 +8°C° 0 mm 4 mps 745 mmHg 84%
    12:00 +10°C° 0 mm 4 mps 745 mmHg 80%
    13:00 +10°C° 0 mm 4 mps 745 mmHg 77%
    14:00 +10°C° 0 mm 4 mps 745 mmHg 78%
    15:00 +10°C° 0 mm 4 mps 745 mmHg 79%
    16:00 +10°C° 0 mm 3 mps 745 mmHg 80%
    17:00 +10°C° 0 mm 4 mps 745 mmHg 82%
    18:00 +10°C° 0 mm 4 mps 746 mmHg 83%
    19:00 +8°C° 0 mm 4 mps 746 mmHg 85%
    20:00 +9°C° 0 mm 3 mps 747 mmHg 87%
    21:00 +8°C° 0 mm 3 mps 747 mmHg 88%
    22:00 +7°C° 0 mm 3 mps 748 mmHg 89%
    23:00 +7°C° 0 mm 3 mps 749 mmHg 87%

    19 November, Tuesday

    Time Temperature Precipitation Wind Pressure Humidity
    00:00 +7°C° 0 mm 3 mps 749 mmHg 84%
    01:00 +5°C° 0 mm 4 mps 749 mmHg 81%
    02:00 +5°C° 0 mm 4 mps 750 mmHg 83%
    03:00 +4°C° 0 mm 4 mps 750 mmHg 84%
    04:00 +4°C° 0 mm 3 mps 750 mmHg 86%
    05:00 +4°C° 0 mm 3 mps 750 mmHg 87%
    06:00 +4°C° 0 mm 3 mps 750 mmHg 89%
    07:00 +3°C° 0 mm 3 mps 751 mmHg 90%
    08:00 +4°C° 0 mm 3 mps 751 mmHg 83%
    09:00 +5°C° 0 mm 3 mps 751 mmHg 77%
    10:00 +7°C° 0 mm 3 mps 751 mmHg 71%
    11:00 +7°C° 0 mm 3 mps 751 mmHg 72%
    12:00 +8°C° 0 mm 3 mps 751 mmHg 73%
    13:00 +8°C° 0 mm 3 mps 751 mmHg 74%
    14:00 +8°C° 0 mm 3 mps 751 mmHg 78%
    15:00 +8°C° 0 mm 2 mps 751 mmHg 82%
    16:00 +7°C° 0 mm 2 mps 750 mmHg 86%
    17:00 +7°C° 0 mm 2 mps 750 mmHg 86%
    18:00 +7°C° 0 mm 2 mps 751 mmHg 87%
    19:00 +7°C° 0 mm 2 mps 751 mmHg 88%
    20:00 +8°C° 0.3 mm 1 mps 751 mmHg 89%
    21:00 +8°C° 0.3 mm 1 mps 751 mmHg 90%
    22:00 +7°C° 0.3 mm 0 mps 751 mmHg 91%
    23:00 +8°C° 0.1 mm 1 mps 751 mmHg 91%

    20 November, Wednesday

    Time Temperature Precipitation Wind Pressure Humidity
    00:00 +8°C° 0.1 mm 1 mps 751 mmHg 91%
    01:00 +8°C° 0.1 mm 1 mps 751 mmHg 91%
    02:00 +8°C° 0 mm 1 mps 750 mmHg 91%
    03:00 +8°C° 0 mm 1 mps 750 mmHg 92%
    04:00 +7°C° 0 mm 1 mps 750 mmHg 92%
    05:00 +7°C° 0.1 mm 1 mps 750 mmHg 92%
    06:00 +7°C° 0.1 mm 1 mps 750 mmHg 93%
    07:00 +7°C° 0.1 mm 1 mps 750 mmHg 93%
    08:00 +8°C° 0.1 mm 1 mps 750 mmHg 92%
    09:00 +8°C° 0.1 mm 1 mps 750 mmHg 91%
    10:00 +7°C° 0.1 mm 2 mps 750 mmHg 90%
    11:00 +8°C° 0.4 mm 1 mps 750 mmHg 91%
    12:00 +8°C° 0.4 mm 1 mps 750 mmHg 91%
    13:00 +8°C° 0.4 mm 1 mps 750 mmHg 91%
    14:00 +8°C° 0.3 mm 1 mps 750 mmHg 92%
    15:00 +8°C° 0.3 mm 1 mps 750 mmHg 93%
    16:00 +8°C° 0.3 mm 1 mps 750 mmHg 94%
    17:00 +8°C° 0.2 mm 1 mps 750 mmHg 94%
    18:00 +7°C° 0.2 mm 1 mps 750 mmHg 94%
    19:00 +6°C° 0.2 mm 2 mps 750 mmHg 94%
    20:00 +6°C° 0 mm 2 mps 750 mmHg 93%
    21:00 +6°C° 0 mm 2 mps 750 mmHg 92%
    22:00 +4°C° 0 mm 3 mps 750 mmHg 92%
    23:00 +4°C° 0 mm 3 mps 750 mmHg 91%
    Show more